This is the latest recevied weather packets stored in our database for station/object KD7CTY. If no packets are shown the sender has not sent any weather packets the latest 10 day(s).
| Time | Temp. | Humidity | Pressure | Rain* | Wind** | Luminosity | Snow |
|---|---|---|---|---|---|---|---|
| 1777914178 | 18.89° C | 67% | 1010.2 hPa | 0 mm | - | 646 W/m² | - |
| 1777913874 | 18.89° C | 68% | 1010.3 hPa | 0 mm | - | 573 W/m² | - |
| 1777913571 | 18.89° C | 67% | 1010.3 hPa | 0 mm | - | 605 W/m² | - |
| 1777913267 | 18.89° C | 66% | 1010.4 hPa | 0 mm | - | 601 W/m² | - |
| 1777912964 | 18.33° C | 67% | 1010.2 hPa | 0 mm | - | 567 W/m² | - |
| 1777912660 | 18.33° C | 70% | 1010 hPa | 0 mm | - | 540 W/m² | - |
| 1777912356 | 18.33° C | 70% | 1010.1 hPa | 0 mm | - | 517 W/m² | - |
| 1777912053 | 18.33° C | 69% | 1009.8 hPa | 0 mm | - | 493 W/m² | - |
| 1777911749 | 17.78° C | 70% | 1010 hPa | 0 mm | - | 442 W/m² | - |
| 1777911446 | 17.78° C | 69% | 1009.9 hPa | 0 mm | - | 457 W/m² | - |
| 1777911142 | 17.22° C | 70% | 1010.2 hPa | 0 mm | - | 446 W/m² | - |
| 1777910840 | 17.22° C | 69% | 1010.2 hPa | 0 mm | - | 420 W/m² | - |
| 1777910536 | 17.78° C | 68% | 1009.9 hPa | 0 mm | - | 388 W/m² | - |
| 1777910234 | 17.78° C | 69% | 1009.9 hPa | 0 mm | - | 368 W/m² | - |
| 1777909930 | 17.22° C | 70% | 1009.9 hPa | 0 mm | - | 350 W/m² | - |
| 1777909627 | 17.22° C | 70% | 1009.7 hPa | 0 mm | - | 323 W/m² | - |
| 1777909325 | 17.22° C | 72% | 1009.9 hPa | 0 mm | - | 179 W/m² | - |
| 1777909022 | 17.22° C | 72% | 1009.8 hPa | 0 mm | - | 274 W/m² | - |
| 1777908720 | 16.67° C | 72% | 1009.7 hPa | 0 mm | - | 271 W/m² | - |
| 1777908417 | 16.67° C | 71% | 1009.6 hPa | 0 mm | - | 285 W/m² | - |
| 1777908114 | 16.67° C | 70% | 1009.9 hPa | 0 mm | - | 107 W/m² | - |
| 1777907810 | 16.67° C | 69% | 1009.8 hPa | 0 mm | - | 93 W/m² | - |
| 1777907504 | 16.67° C | 68% | 1009.5 hPa | 0 mm | - | 80 W/m² | - |
| 1777907202 | 16.67° C | 69% | 1009.4 hPa | 0 mm | - | 63 W/m² | - |
| 1777906898 | 16.11° C | 70% | 1009.7 hPa | 0 mm | - | 57 W/m² | - |
* Rain latest hour (hover to see other rain measurements)
** Current wind speed in m/s (hover to see current wind gust speed)